This is the latest recevied weather packets stored in our database for station/object OK4PZ-5. If no packets are shown the sender has not sent any weather packets the latest 10 day(s).
| Time | Temp. | Humidity | Pressure | Rain* | Wind** | Luminosity | Snow |
|---|---|---|---|---|---|---|---|
| 1788272102 | 23.33° C | 43% | 1023 hPa | 0 mm | - | - | - |
| 1788271202 | 22.78° C | 45% | 1023 hPa | 0 mm | - | - | - |
| 1788270302 | 23.89° C | 44% | 1023 hPa | 0 mm | - | - | - |
| 1788269402 | 23.89° C | 43% | 1023 hPa | 0 mm | - | - | - |
| 1788267602 | 23.33° C | 45% | 1023 hPa | 0 mm | - | - | - |
| 1788266703 | 23.33° C | 48% | 1023 hPa | 0 mm | - | - | - |
| 1788265802 | 22.78° C | 48% | 1023 hPa | 0 mm | - | - | - |
| 1788264902 | 22.78° C | 49% | 1023 hPa | 0 mm | - | - | - |
| 1788264025 | 22.78° C | 49% | 1023 hPa | 0 mm | - | - | - |
| 1788263102 | 22.22° C | 50% | 1023 hPa | 0 mm | - | - | - |
| 1788262218 | 21.11° C | 55% | 1023 hPa | 0 mm | - | - | - |
| 1788261303 | 21.67° C | 53% | 1023 hPa | 0 mm | - | - | - |
| 1788260402 | 21.67° C | 53% | 1023 hPa | 0 mm | - | - | - |
| 1788259502 | 21.67° C | 55% | 1023 hPa | 0 mm | - | - | - |
| 1788258602 | 21.11° C | 58% | 1023 hPa | 0 mm | - | - | - |
| 1788257703 | 21.11° C | 59% | 1023 hPa | 0 mm | - | - | - |
| 1788256802 | 21.11° C | 58% | 1023 hPa | 0 mm | - | - | - |
| 1788255902 | 20° C | 62% | 1023 hPa | 0 mm | - | - | - |
| 1788254103 | 20° C | 62% | 1023 hPa | 0 mm | - | - | - |
| 1788253202 | 19.44° C | 66% | 1024 hPa | 0 mm | - | - | - |
| 1788252302 | 20° C | 65% | 1024 hPa | 0 mm | - | - | - |
| 1788251402 | 19.44° C | 67% | 1024 hPa | 0 mm | - | - | - |
| 1788250502 | 18.89° C | 66% | 1023 hPa | 0 mm | - | - | - |
| 1788249602 | 19.44° C | 66% | 1023 hPa | 0 mm | - | - | - |
| 1788247802 | 18.33° C | 70% | 1023 hPa | 0 mm | - | - | - |
* Rain latest hour (hover to see other rain measurements)
** Current wind speed in m/s (hover to see current wind gust speed)